TimeEDT,TemperatureF,Dew PointF,Humidity,Sea Level PressureIn,VisibilityMPH,Wind Direction,Wind SpeedMPH,Gust SpeedMPH,PrecipitationIn,Events,Conditions,WindDirDegrees,DateUTC
12:15 AM,57.2,53.4,87,30.08,10.0,Calm,Calm,-,N/A,,Overcast,0,2013-04-30 04:15:00
12:35 AM,57.0,53.6,88,30.08,10.0,Calm,Calm,-,N/A,,Overcast,0,2013-04-30 04:35:00
12:55 AM,56.3,54.5,94,30.08,10.0,Calm,Calm,-,N/A,,Overcast,0,2013-04-30 04:55:00
1:15 AM,56.7,54.9,94,30.08,10.0,Calm,Calm,-,N/A,,Overcast,0,2013-04-30 05:15:00
1:35 AM,56.3,55.2,96,30.08,10.0,Calm,Calm,-,N/A,,Overcast,0,2013-04-30 05:35:00
1:55 AM,55.8,55.2,98,30.08,10.0,Calm,Calm,-,N/A,,Overcast,0,2013-04-30 05:55:00
2:15 AM,55.9,55.6,99,30.07,10.0,Calm,Calm,-,N/A,,Overcast,0,2013-04-30 06:15:00
2:35 AM,55.8,55.6,99,30.07,10.0,Calm,Calm,-,N/A,,Overcast,0,2013-04-30 06:35:00
2:55 AM,55.4,55.2,99,30.07,10.0,Calm,Calm,-,N/A,,Overcast,0,2013-04-30 06:55:00
3:15 AM,55.4,55.4,100,30.07,10.0,Calm,Calm,-,N/A,,Overcast,0,2013-04-30 07:15:00
3:35 AM,55.8,55.8,100,30.08,1.0,Calm,Calm,-,N/A,,Overcast,0,2013-04-30 07:35:00
3:55 AM,55.9,55.9,100,30.08,0.2,Calm,Calm,-,N/A,Fog,Fog,0,2013-04-30 07:55:00
4:15 AM,56.1,56.1,100,30.09,0.2,Calm,Calm,-,N/A,Fog,Fog,0,2013-04-30 08:15:00
4:35 AM,55.8,55.8,100,30.09,0.2,Calm,Calm,-,N/A,Fog,Fog,0,2013-04-30 08:35:00
4:55 AM,55.6,55.6,100,30.09,0.2,Calm,Calm,-,N/A,Fog,Fog,0,2013-04-30 08:55:00
5:15 AM,55.0,55.0,100,30.10,0.2,Calm,Calm,-,N/A,Fog,Fog,0,2013-04-30 09:15:00
5:35 AM,55.0,55.0,100,30.10,0.2,Calm,Calm,-,N/A,Fog,Fog,0,2013-04-30 09:35:00
5:55 AM,54.9,54.9,100,30.11,0.2,Calm,Calm,-,N/A,Fog,Fog,0,2013-04-30 09:55:00
6:15 AM,54.9,54.9,100,30.11,0.2,Calm,Calm,-,N/A,Fog,Fog,0,2013-04-30 10:15:00
6:35 AM,55.0,55.0,100,30.12,0.2,Calm,Calm,-,N/A,Fog,Fog,0,2013-04-30 10:35:00
6:55 AM,55.2,55.2,100,30.13,0.2,Calm,Calm,-,N/A,Fog,Fog,0,2013-04-30 10:55:00
7:15 AM,55.6,55.6,100,30.14,1.8,Calm,Calm,-,N/A,,Overcast,0,2013-04-30 11:15:00
7:35 AM,55.9,55.9,100,30.15,1.8,Calm,Calm,-,N/A,,Overcast,0,2013-04-30 11:35:00
7:55 AM,56.3,56.3,100,30.15,2.5,Calm,Calm,-,N/A,,Overcast,0,2013-04-30 11:55:00
8:15 AM,56.7,56.7,100,30.16,5.0,Calm,Calm,-,N/A,,Overcast,0,2013-04-30 12:15:00
8:35 AM,57.0,57.0,100,30.16,5.0,Calm,Calm,-,N/A,,Overcast,0,2013-04-30 12:35:00
8:55 AM,57.4,57.4,100,30.17,4.0,Calm,Calm,-,N/A,,Overcast,0,2013-04-30 12:55:00
9:15 AM,58.1,58.1,100,30.17,5.0,ENE,5.8,-,N/A,,Overcast,60,2013-04-30 13:15:00
9:35 AM,59.0,58.5,98,30.17,7.0,Calm,Calm,-,N/A,,Overcast,0,2013-04-30 13:35:00
9:55 AM,59.5,57.4,93,30.17,10.0,Calm,Calm,-,N/A,,Overcast,0,2013-04-30 13:55:00
10:15 AM,60.8,57.7,90,30.17,10.0,Calm,Calm,-,N/A,,Overcast,0,2013-04-30 14:15:00
10:35 AM,62.1,57.4,85,30.17,10.0,Calm,Calm,-,N/A,,Mostly Cloudy,0,2013-04-30 14:35:00
10:55 AM,63.3,56.3,78,30.17,10.0,Calm,Calm,-,N/A,,Mostly Cloudy,0,2013-04-30 14:55:00
11:15 AM,64.9,55.9,73,30.16,10.0,Calm,Calm,-,N/A,,Mostly Cloudy,0,2013-04-30 15:15:00
11:35 AM,66.6,56.8,71,30.16,10.0,Calm,Calm,-,N/A,,Scattered Clouds,0,2013-04-30 15:35:00
11:55 AM,68.0,57.2,68,30.16,10.0,Calm,Calm,-,N/A,,Scattered Clouds,0,2013-04-30 15:55:00
12:15 PM,67.8,55.8,65,30.16,10.0,NE,5.8,-,N/A,,Scattered Clouds,40,2013-04-30 16:15:00
12:35 PM,69.3,56.1,63,30.15,10.0,ENE,9.2,-,N/A,,Scattered Clouds,60,2013-04-30 16:35:00
12:55 PM,70.0,56.5,62,30.15,10.0,Calm,Calm,-,N/A,,Scattered Clouds,0,2013-04-30 16:55:00
1:15 PM,70.7,56.3,60,30.14,10.0,ENE,8.1,-,N/A,,Scattered Clouds,70,2013-04-30 17:15:00
1:35 PM,70.9,55.2,58,30.14,10.0,Calm,Calm,-,N/A,,Scattered Clouds,0,2013-04-30 17:35:00
1:55 PM,71.4,54.5,55,30.13,10.0,ENE,8.1,-,N/A,,Scattered Clouds,60,2013-04-30 17:55:00
2:15 PM,72.9,53.8,51,30.13,10.0,Calm,Calm,-,N/A,,Clear,0,2013-04-30 18:15:00
2:35 PM,72.3,53.4,51,30.13,10.0,Calm,Calm,-,N/A,,Scattered Clouds,0,2013-04-30 18:35:00
2:55 PM,73.4,53.8,50,30.12,10.0,Calm,Calm,-,N/A,,Scattered Clouds,0,2013-04-30 18:55:00
3:15 PM,73.6,52.9,48,30.12,10.0,Calm,Calm,-,N/A,,Clear,0,2013-04-30 19:15:00
3:35 PM,72.3,52.3,49,30.12,10.0,Calm,Calm,-,N/A,,Clear,0,2013-04-30 19:35:00
3:55 PM,73.6,52.2,47,30.11,10.0,Calm,Calm,-,N/A,,Clear,0,2013-04-30 19:55:00
4:15 PM,73.8,50.7,44,30.11,10.0,Calm,Calm,-,N/A,,Scattered Clouds,0,2013-04-30 20:15:00
4:35 PM,73.2,51.4,46,30.11,10.0,Calm,Calm,-,N/A,,Clear,0,2013-04-30 20:35:00
4:55 PM,74.3,51.3,44,30.11,10.0,Calm,Calm,-,N/A,,Scattered Clouds,0,2013-04-30 20:55:00
5:15 PM,72.3,52.0,49,30.11,10.0,Calm,Calm,-,N/A,,Overcast,0,2013-04-30 21:15:00
5:35 PM,71.4,52.7,52,30.12,10.0,Calm,Calm,-,N/A,,Scattered Clouds,0,2013-04-30 21:35:00
5:55 PM,71.6,53.4,53,30.12,10.0,Calm,Calm,-,N/A,,Scattered Clouds,0,2013-04-30 21:55:00
6:15 PM,71.6,52.3,51,30.13,10.0,Calm,Calm,-,N/A,,Mostly Cloudy,0,2013-04-30 22:15:00
6:35 PM,70.9,53.4,54,30.14,10.0,Calm,Calm,-,N/A,,Overcast,0,2013-04-30 22:35:00
6:55 PM,70.0,53.4,56,30.15,10.0,Calm,Calm,-,N/A,,Overcast,0,2013-04-30 22:55:00
7:15 PM,69.3,53.2,57,30.16,10.0,Calm,Calm,-,N/A,,Overcast,0,2013-04-30 23:15:00
7:35 PM,67.5,53.6,61,30.17,10.0,ESE,11.5,18.4,N/A,,Overcast,120,2013-04-30 23:35:00
7:55 PM,66.7,53.8,63,30.18,10.0,ESE,3.5,-,N/A,,Overcast,120,2013-04-30 23:55:00
8:15 PM,65.5,54.1,67,30.19,10.0,Calm,Calm,-,N/A,,Overcast,0,2013-05-01 00:15:00
8:35 PM,64.4,54.1,69,30.21,10.0,Calm,Calm,-,N/A,,Overcast,0,2013-05-01 00:35:00
8:55 PM,63.3,54.1,72,30.21,10.0,East,9.2,-,N/A,,Overcast,90,2013-05-01 00:55:00
9:15 PM,61.9,54.0,75,30.22,10.0,Calm,Calm,-,N/A,,Scattered Clouds,0,2013-05-01 01:15:00
9:35 PM,61.7,54.1,76,30.23,10.0,East,8.1,-,N/A,,Mostly Cloudy,80,2013-05-01 01:35:00
10:15 PM,60.4,54.1,80,30.24,10.0,Calm,Calm,-,N/A,,Mostly Cloudy,0,2013-05-01 02:15:00
10:35 PM,60.1,54.0,80,30.25,10.0,East,4.6,-,N/A,,Overcast,90,2013-05-01 02:35:00
10:55 PM,59.7,54.0,81,30.25,10.0,East,4.6,-,N/A,,Mostly Cloudy,80,2013-05-01 02:55:00
11:15 PM,60.3,54.1,80,30.25,10.0,Calm,Calm,-,N/A,,Overcast,0,2013-05-01 03:15:00
11:35 PM,60.3,54.0,80,30.25,10.0,Calm,Calm,-,N/A,,Overcast,0,2013-05-01 03:35:00
11:55 PM,59.9,54.1,81,30.25,10.0,Calm,Calm,-,N/A,,Overcast,0,2013-05-01 03:55:00